CMB4664 PABR-KRME

Flight info

Callsign CMB4664
Flight time N/A
Altitude 33000
Route SCC ADREW YEV 68N30 67N124W 65N17/N0481F350 64N114W 63N108W 62N104W 60N98W/N0475F370 YYQ 5890N 57N086W 5584N 54N082W 5079N YVO Q837 EPRES Q997 SASID/N0472F400 IKLAX Q844 VIBRU T634 BRUIN
Aircraft CL60/M-SBDE1E2E3FGHIJ1J4J5J7M3RWXYZ/LB1V1D1

Departure

Time 2026-04-22 18:56
Airport Wiley Post Will Rogers Memorial Airport (PABR)

Arrival

Time N/A
Airport Griffiss International Airport (KRME)
Time Latitude Longitude Altitude Speed Heading
2026-04-22 18:53 71.28495 -156.79219 19 ft 0 kts 136°
2026-04-22 18:54 71.28475 -156.79169 20 ft 2 kts 104°
2026-04-22 18:54 71.28482 -156.79111 20 ft 0 kts 72°
2026-04-22 18:55 71.28487 -156.78992 18 ft 30 kts 88°
2026-04-22 18:56 71.28490 -156.76831 18 ft 128 kts 91°
2026-04-22 18:56 71.28479 -156.72838 281 ft 174 kts 89°
2026-04-22 18:56 71.28474 -156.68140 1051 ft 189 kts 88°
2026-04-22 18:56 71.28487 -156.63301 1887 ft 207 kts 88°
2026-04-22 18:57 71.28507 -156.57637 2623 ft 234 kts 88°
2026-04-22 18:57 71.28494 -156.51575 3704 ft 246 kts 97°
2026-04-22 18:57 71.27975 -156.45938 4860 ft 254 kts 108°
2026-04-22 18:57 71.27329 -156.40079 6137 ft 259 kts 108°
2026-04-22 18:58 71.26692 -156.34282 7337 ft 264 kts 109°
2026-04-22 18:58 71.26012 -156.28105 8563 ft 268 kts 108°
2026-04-22 18:58 71.25315 -156.21759 9753 ft 273 kts 108°
2026-04-22 18:58 71.24614 -156.15381 10559 ft 290 kts 108°
2026-04-22 18:59 71.23852 -156.08458 10857 ft 321 kts 108°
2026-04-22 18:59 71.23037 -156.01060 11625 ft 333 kts 108°
2026-04-22 18:59 71.22203 -155.93532 12501 ft 341 kts 108°
2026-04-22 18:59 71.21310 -155.85486 13456 ft 346 kts 108°
2026-04-22 19:00 71.20453 -155.77792 14347 ft 350 kts 108°
2026-04-22 19:00 71.19616 -155.70299 15168 ft 354 kts 108°
2026-04-22 19:00 71.18745 -155.62538 15971 ft 358 kts 108°
2026-04-22 19:00 71.17823 -155.54341 16790 ft 362 kts 108°
2026-04-22 19:01 71.16855 -155.45772 17606 ft 366 kts 108°
2026-04-22 19:01 71.15864 -155.37038 18397 ft 369 kts 108°
2026-04-22 19:01 71.14856 -155.28197 19147 ft 373 kts 109°
2026-04-22 19:01 71.13840 -155.19327 19855 ft 377 kts 109°
2026-04-22 19:02 71.12778 -155.10100 20556 ft 380 kts 109°
2026-04-22 19:02 71.11742 -155.01140 21200 ft 383 kts 109°
2026-04-22 19:02 71.10689 -154.92082 21791 ft 387 kts 109°
2026-04-22 19:02 71.09622 -154.82950 22353 ft 390 kts 109°
2026-04-22 19:03 71.08534 -154.73685 22898 ft 394 kts 109°
2026-04-22 19:03 71.07484 -154.64783 23380 ft 397 kts 109°
2026-04-22 19:03 71.06447 -154.56036 23827 ft 400 kts 109°
2026-04-22 19:03 71.05415 -154.47383 24256 ft 403 kts 109°
2026-04-22 19:04 71.04324 -154.38269 24688 ft 406 kts 109°
2026-04-22 19:04 71.03201 -154.28941 25099 ft 409 kts 110°
2026-04-22 19:04 71.02062 -154.19531 25494 ft 412 kts 110°
2026-04-22 19:04 71.00904 -154.10007 25879 ft 415 kts 110°
2026-04-22 19:05 70.99741 -154.00499 26250 ft 418 kts 110°
2026-04-22 19:05 70.98560 -153.90887 26619 ft 422 kts 110°
2026-04-22 19:05 70.97374 -153.81297 26965 ft 425 kts 110°
2026-04-22 19:05 70.96160 -153.71530 27301 ft 428 kts 110°
2026-04-22 19:06 70.94921 -153.61616 27596 ft 432 kts 110°
2026-04-22 19:06 70.93655 -153.51538 27871 ft 436 kts 110°
2026-04-22 19:06 70.92346 -153.41180 28148 ft 440 kts 111°
2026-04-22 19:07 70.89715 -153.20535 28678 ft 447 kts 111°
2026-04-22 19:07 70.88346 -153.09889 28946 ft 450 kts 111°
2026-04-22 19:07 70.86980 -152.99326 29199 ft 453 kts 111°
2026-04-22 19:07 70.85606 -152.88762 29441 ft 456 kts 112°
2026-04-22 19:08 70.84220 -152.78174 29672 ft 458 kts 112°
2026-04-22 19:08 70.82845 -152.67722 29889 ft 461 kts 112°
2026-04-22 19:08 70.81423 -152.56975 30108 ft 463 kts 112°
2026-04-22 19:08 70.79983 -152.46153 30375 ft 464 kts 112°
2026-04-22 19:09 70.78545 -152.35416 30654 ft 465 kts 112°
2026-04-22 19:09 70.77129 -152.24889 30919 ft 465 kts 113°
2026-04-22 19:09 70.75672 -152.14131 31179 ft 466 kts 113°
2026-04-22 19:09 70.74208 -152.03378 31429 ft 466 kts 113°
2026-04-22 19:10 70.72765 -151.92839 31648 ft 467 kts 113°
2026-04-22 19:10 70.71271 -151.81996 31830 ft 468 kts 113°
2026-04-22 19:10 70.69772 -151.71182 31993 ft 470 kts 113°
2026-04-22 19:10 70.68284 -151.60513 32148 ft 471 kts 113°
2026-04-22 19:11 70.66777 -151.49753 32316 ft 472 kts 113°
2026-04-22 19:11 70.65269 -151.39052 32491 ft 472 kts 113°
2026-04-22 19:11 70.63787 -151.28592 32661 ft 473 kts 114°
2026-04-22 19:11 70.62291 -151.18089 32828 ft 473 kts 114°
2026-04-22 19:12 70.60767 -151.07459 32998 ft 473 kts 114°
2026-04-22 19:12 70.59265 -150.97026 33120 ft 475 kts 114°
2026-04-22 19:12 70.57753 -150.86586 33162 ft 478 kts 114°
2026-04-22 19:12 70.56220 -150.76060 33403 ft 476 kts 114°
2026-04-22 19:13 70.54672 -150.65488 33493 ft 479 kts 114°
2026-04-22 19:13 70.51531 -150.44226 33495 ft 487 kts 114°
2026-04-22 19:14 70.48353 -150.22940 33496 ft 494 kts 115°
2026-04-22 19:14 70.45025 -150.00903 33492 ft 501 kts 115°
2026-04-22 19:15 70.41888 -149.80360 33484 ft 506 kts 115°
2026-04-22 19:15 70.38844 -149.60622 33484 ft 510 kts 115°
2026-04-22 19:16 70.35735 -149.40669 33484 ft 513 kts 115°
2026-04-22 19:16 70.32448 -149.19785 33482 ft 516 kts 116°
2026-04-22 19:17 70.28970 -148.97923 33480 ft 517 kts 116°
2026-04-22 19:17 70.25742 -148.77841 33482 ft 516 kts 116°
2026-04-22 19:18 70.22480 -148.57750 33480 ft 515 kts 116°
2026-04-22 19:18 70.19405 -148.37891 33480 ft 515 kts 109°
2026-04-22 19:19 70.17040 -148.17064 33481 ft 515 kts 109°
2026-04-22 19:19 70.14681 -147.96370 33475 ft 516 kts 109°
2026-04-22 19:20 70.12273 -147.75537 33483 ft 517 kts 109°
2026-04-22 19:20 70.09727 -147.53796 33481 ft 518 kts 109°
2026-04-22 19:21 70.07053 -147.31249 33476 ft 519 kts 110°
2026-04-22 19:21 70.04343 -147.08717 33470 ft 518 kts 110°
2026-04-22 19:22 70.01638 -146.86517 33468 ft 517 kts 110°
2026-04-22 19:22 69.98959 -146.64810 33459 ft 516 kts 110°
2026-04-22 19:23 69.96202 -146.42767 33444 ft 515 kts 110°
2026-04-22 19:23 69.93394 -146.20587 33447 ft 517 kts 111°
2026-04-22 19:24 69.90588 -145.98698 33440 ft 519 kts 111°
2026-04-22 19:24 69.87820 -145.77353 33439 ft 519 kts 111°
2026-04-22 19:25 69.84934 -145.55377 33401 ft 519 kts 111°
2026-04-22 19:25 69.82066 -145.33794 33385 ft 517 kts 112°
2026-04-22 19:26 69.79208 -145.12544 33362 ft 517 kts 112°
2026-04-22 19:26 69.76281 -144.91042 33323 ft 517 kts 111°
2026-04-22 19:27 69.73370 -144.69894 33325 ft 517 kts 111°
2026-04-22 19:27 69.70396 -144.48537 33320 ft 517 kts 111°
2026-04-22 19:28 69.67402 -144.27275 33294 ft 518 kts 112°
2026-04-22 19:28 69.64374 -144.06023 33293 ft 517 kts 112°
2026-04-22 19:29 69.61327 -143.84869 33290 ft 516 kts 112°
2026-04-22 19:29 69.58263 -143.63843 33278 ft 515 kts 112°
2026-04-22 19:30 69.55695 -143.46391 33269 ft 515 kts 112°
2026-04-22 19:30 69.52082 -143.22101 33242 ft 515 kts 113°
2026-04-22 19:31 69.49028 -143.01814 33263 ft 515 kts 113°
2026-04-22 19:31 69.45895 -142.81227 33162 ft 517 kts 113°
2026-04-22 19:31 69.44302 -142.70837 33052 ft 520 kts 113°
2026-04-22 19:32 69.42674 -142.60277 32818 ft 525 kts 113°
2026-04-22 19:32 69.41016 -142.49564 32515 ft 528 kts 113°
2026-04-22 19:32 69.39397 -142.39166 32531 ft 523 kts 113°
2026-04-22 19:33 69.36146 -142.18483 32529 ft 520 kts 114°
2026-04-22 19:33 69.32915 -141.98134 32884 ft 509 kts 114°
2026-04-22 19:33 69.31338 -141.88275 33147 ft 503 kts 114°
2026-04-22 19:34 69.29777 -141.78567 33295 ft 501 kts 114°
2026-04-22 19:34 69.26637 -141.59189 33308 ft 503 kts 114°
2026-04-22 19:35 69.23381 -141.39282 33253 ft 506 kts 114°
2026-04-22 19:35 69.20098 -141.19417 33091 ft 512 kts 115°
2026-04-22 19:35 69.18426 -141.09376 33218 ft 509 kts 115°
2026-04-22 19:36 69.16907 -140.99245 33268 ft 508 kts 108°
2026-04-22 19:36 69.14900 -140.78189 33270 ft 509 kts 103°
2026-04-22 19:37 69.12951 -140.56973 33375 ft 508 kts 103°
2026-04-22 19:37 69.10968 -140.35721 33364 ft 510 kts 103°
2026-04-22 19:38 69.08948 -140.14398 33247 ft 514 kts 104°
2026-04-22 19:38 69.06873 -139.92822 33078 ft 518 kts 104°
2026-04-22 19:39 69.04787 -139.71455 33148 ft 516 kts 104°
2026-04-22 19:39 69.02638 -139.49767 33043 ft 518 kts 104°
2026-04-22 19:40 69.00487 -139.28372 33179 ft 513 kts 105°
2026-04-22 19:40 68.98340 -139.07312 33306 ft 510 kts 105°
2026-04-22 19:41 68.96154 -138.86173 33370 ft 510 kts 105°
2026-04-22 19:41 68.93929 -138.64946 33377 ft 511 kts 105°
2026-04-22 19:42 68.91677 -138.43758 33346 ft 512 kts 105°
2026-04-22 19:42 68.89406 -138.22681 33360 ft 514 kts 106°
2026-04-22 19:43 68.85897 -137.90674 33397 ft 517 kts 106°
2026-04-22 19:43 68.83462 -137.68839 33410 ft 519 kts 106°
2026-04-22 19:44 68.81056 -137.47551 33442 ft 521 kts 106°
2026-04-22 19:44 68.78629 -137.26350 33439 ft 521 kts 107°
2026-04-22 19:45 68.76080 -137.04381 33436 ft 521 kts 107°
2026-04-22 19:45 68.73536 -136.82745 33429 ft 521 kts 107°
2026-04-22 19:46 68.70963 -136.61153 33441 ft 520 kts 107°
2026-04-22 19:46 68.68346 -136.39475 33466 ft 519 kts 107°
2026-04-22 19:47 68.65698 -136.17810 33456 ft 520 kts 108°
2026-04-22 19:47 68.62952 -135.95647 33431 ft 521 kts 108°
2026-04-22 19:48 68.60192 -135.73653 33469 ft 520 kts 108°
2026-04-22 19:48 68.57358 -135.51355 33484 ft 521 kts 108°
2026-04-22 19:49 68.54553 -135.29564 33485 ft 521 kts 109°
2026-04-22 19:49 68.51640 -135.07210 33486 ft 521 kts 109°
2026-04-22 19:50 68.48713 -134.85049 33486 ft 521 kts 109°
2026-04-22 19:50 68.45777 -134.63092 33486 ft 520 kts 109°
2026-04-22 19:51 68.42886 -134.41734 33483 ft 520 kts 109°
2026-04-22 19:51 68.39983 -134.20535 33477 ft 519 kts 110°
2026-04-22 19:52 68.37083 -133.99611 33508 ft 518 kts 110°
2026-04-22 19:52 68.34235 -133.79291 33523 ft 519 kts 110°
2026-04-22 19:53 68.31313 -133.58542 33464 ft 521 kts 108°
2026-04-22 19:53 68.29430 -133.37221 33447 ft 519 kts 100°
2026-04-22 19:54 68.27798 -133.16002 33455 ft 518 kts 101°
2026-04-22 19:54 68.26120 -132.94574 33416 ft 518 kts 101°
2026-04-22 19:55 68.24422 -132.73267 33366 ft 518 kts 101°
2026-04-22 19:55 68.22681 -132.51813 33384 ft 516 kts 101°
2026-04-22 19:56 68.20910 -132.30366 33374 ft 516 kts 102°
2026-04-22 19:56 68.19085 -132.08640 33372 ft 517 kts 102°
2026-04-22 19:57 68.17237 -131.87001 33376 ft 517 kts 102°
2026-04-22 19:57 68.15365 -131.65446 33386 ft 517 kts 102°
2026-04-22 19:58 68.13470 -131.43990 33403 ft 518 kts 102°
2026-04-22 19:58 68.11562 -131.22722 33369 ft 518 kts 103°
2026-04-22 20:00 68.04665 -130.48524 33365 ft 515 kts 103°
2026-04-22 20:01 68.02615 -130.27222 33367 ft 514 kts 104°
2026-04-22 20:01 68.00542 -130.06000 33362 ft 514 kts 104°
2026-04-22 20:02 67.97914 -129.85335 33393 ft 513 kts 111°
2026-04-22 20:02 67.94964 -129.64937 33414 ft 514 kts 111°
2026-04-22 20:03 67.92015 -129.44737 33392 ft 515 kts 111°
2026-04-22 20:03 67.89071 -129.24764 33374 ft 515 kts 112°
2026-04-22 20:04 67.86018 -129.04265 33362 ft 515 kts 112°
2026-04-22 20:04 67.82970 -128.84012 33359 ft 515 kts 112°
2026-04-22 20:05 67.79891 -128.63763 33358 ft 515 kts 112°
2026-04-22 20:05 67.76734 -128.43213 33351 ft 515 kts 112°
2026-04-22 20:06 67.73614 -128.23120 33333 ft 515 kts 113°
2026-04-22 20:06 67.70418 -128.02753 33285 ft 515 kts 113°
2026-04-22 20:07 67.67231 -127.82652 33277 ft 514 kts 113°
2026-04-22 20:07 67.64024 -127.62645 33277 ft 513 kts 113°
2026-04-22 20:08 67.60768 -127.42532 33279 ft 513 kts 113°
2026-04-22 20:08 67.57513 -127.22640 33276 ft 513 kts 114°
2026-04-22 20:09 67.54234 -127.02790 33285 ft 513 kts 114°
2026-04-22 20:09 67.50915 -126.82915 33281 ft 514 kts 114°
2026-04-22 20:10 67.47562 -126.63030 33284 ft 514 kts 114°
2026-04-22 20:10 67.44167 -126.43099 33288 ft 515 kts 114°
2026-04-22 20:11 67.40752 -126.23251 33270 ft 515 kts 115°
2026-04-22 20:11 67.37262 -126.03171 33277 ft 514 kts 115°
2026-04-22 20:12 67.33790 -125.83395 33284 ft 513 kts 115°
2026-04-22 20:12 67.30321 -125.63831 33279 ft 513 kts 115°
2026-04-22 20:13 67.26830 -125.44331 33257 ft 513 kts 115°
2026-04-22 20:13 67.23356 -125.25104 33199 ft 513 kts 116°
2026-04-22 20:14 67.19823 -125.05749 33215 ft 512 kts 116°
2026-04-22 20:14 67.16332 -124.86794 33227 ft 512 kts 116°
2026-04-22 20:15 67.12780 -124.67688 33229 ft 513 kts 116°
2026-04-22 20:15 67.09182 -124.48517 33233 ft 513 kts 116°
2026-04-22 20:16 67.05546 -124.29322 33245 ft 513 kts 117°
2026-04-22 20:16 67.01894 -124.10223 33256 ft 513 kts 117°
2026-04-22 20:17 66.97933 -123.91499 33261 ft 512 kts 123°
2026-04-22 20:17 66.93527 -123.73589 33259 ft 512 kts 123°
2026-04-22 20:18 66.89217 -123.56186 33255 ft 512 kts 123°
2026-04-22 20:18 66.84775 -123.38375 33248 ft 512 kts 123°
2026-04-22 20:19 66.80389 -123.20917 33237 ft 512 kts 124°
2026-04-22 20:19 66.75915 -123.03239 33205 ft 512 kts 124°
2026-04-22 20:20 66.71446 -122.85721 33192 ft 511 kts 124°
2026-04-22 20:20 66.66903 -122.68042 33208 ft 511 kts 124°
2026-04-22 20:21 66.62332 -122.50396 33260 ft 511 kts 124°
2026-04-22 20:21 66.57769 -122.32920 33280 ft 512 kts 126°
2026-04-22 20:22 66.53124 -122.15268 33305 ft 512 kts 126°
2026-04-22 20:22 66.48511 -121.97871 33349 ft 511 kts 126°
2026-04-22 20:23 66.43870 -121.80512 33373 ft 512 kts 126°
2026-04-22 20:23 66.39173 -121.63077 33382 ft 513 kts 126°
2026-04-22 20:24 66.34465 -121.45738 33381 ft 513 kts 126°
2026-04-22 20:24 66.29777 -121.28606 33378 ft 513 kts 127°
2026-04-22 20:25 66.25023 -121.11367 33373 ft 513 kts 127°
2026-04-22 20:25 66.20227 -120.94112 33369 ft 512 kts 127°
2026-04-22 20:26 66.15486 -120.77187 33364 ft 512 kts 127°
2026-04-22 20:26 66.10706 -120.60252 33359 ft 511 kts 127°
2026-04-22 20:27 66.06052 -120.43885 33352 ft 511 kts 127°
2026-04-22 20:27 66.01215 -120.27002 33350 ft 511 kts 128°
2026-04-22 20:28 65.96390 -120.10288 33347 ft 510 kts 128°
2026-04-22 20:28 65.91580 -119.93752 33353 ft 510 kts 128°
2026-04-22 20:29 65.86713 -119.77144 33340 ft 511 kts 128°
2026-04-22 20:29 65.81832 -119.60611 33316 ft 511 kts 128°
2026-04-22 20:30 65.76932 -119.44137 33281 ft 511 kts 128°
2026-04-22 20:30 65.72083 -119.27954 33246 ft 510 kts 128°
2026-04-22 20:31 65.67184 -119.11723 33245 ft 509 kts 128°
2026-04-22 20:31 65.62261 -118.95531 33245 ft 508 kts 129°
2026-04-22 20:32 65.57335 -118.79445 33257 ft 508 kts 129°
2026-04-22 20:32 65.52391 -118.63420 33253 ft 508 kts 129°